Showing default

CALSPHERE 1, 900

Orbit data source: Space-Track

CALSPHERE 1, 900 is a payload satellite owned by NRL (US) in LEO that was launched on Tue, 06 Oct 1964 UTC via a THOR ABLESTAR launch vehicle from the Air Force Western Test Range (AFWTR). Payload-class satellites include a variety of spacecraft equipped with specific instruments for various scientific and technological missions. These include communications satellites like Starlink; space stations such as the ISS; scientific satellites like the Hubble; Earth observation satellites from companies like Planet Labs, Umbra, and HawkEye 360; GPS; miniature CubeSats for education and research; and military/defense satellites.

Loading next visibility...
Identifier
900, 1964-063C
Orbit
LEO
Country
Flag of USUS
Related business
Manufacturer
NRL
Mission
Operational spacecraft
Bus & Motor
NRL 14", Unknown motor
Mass
1 kg wet, 1 kg dry
Launch date (UTC)
1964-10-06 (62 years ago)
Launch vehicle
THOR ABLESTAR
Launch site
Air Force Western Test Range (AFWTR)
Object type
Payload
Rocket body
Debris
Shape & HBR
Unknown
Radar Cross Section
Small (<0.1 m²)

Expand to show TLE details & history
Last TLE update: 8 hours ago

TLE from 8 hours ago
0 CALSPHERE 1
1 00900U 64063C   26128.28213748  .00000606  00000-0  60758-3 0  9993
2 00900  90.2226  70.8300 0028437  55.0281 110.6465 13.76577122 65932
Epoch: 2026-05-08T06:46Z
TLE epoch observation values (Epoch: 2026-05-08T06:46:16.678Z)
Latitude
13.98835°
Longitude
-76.80049°
Altitude
985.742 km
Speed
7.356 km/s
True Right ascension
16h 43m 32s
True Declination
13° 54' 37"
Sunlit
Object was in full shadow at epoch
Visualization orbit readout
Latitude
Unknown
Longitude
Unknown
Altitude
Unknown
Speed
Unknown
Apparent Right ascension
Unknown
Apparent Declination
Unknown
Sunlit
N/A
Visualization observer readout
Local Sidereal Time
22:57:19
Azimuth
Unknown
Elevation
Unknown
Doppler factor
Unknown
Orbital elements
Apogee altitude
993.968 km
Perigee altitude
952.159 km
Semi-major axis
7,351.201 km
Eccentricity
0.00284
Inclination
90.2226°
RAAN
70.83°
Arg. of periapsis
55.0281°
True anomaly
110.95105°
Mean anomaly
110.6465°
Eccentric anomaly
110.79881°
Mean motion
3.44354 °/min
Orbital period
104.54 mins
BSTAR
0.00060758
Loading maneuver chart data...
Computing Atmospheric mass density...
Loading historical data...
Loading historical data...
Loading historical data...
Loading historical data...
Loading historical data...
Loading historical data...
Loading historical data...

Documentation

Showing up to 5 results
|